Selawik, AK

7:27 PM AKDT on August 22, 2017 (GMT -0800)
Selawik

Weather History for PASK - May, 2013

Change the Weather History Date:

Tuesday, May 14, 2013

  Actual Average Record
Temperature  
Mean Temperature 14 °F -  
Max Temperature 19 °F 38 °F 53 °F (2008)
Min Temperature 8 °F 24 °F 8 °F (2013)
Degree Days  
Heating Degree Days 52    
Moisture  
Dew Point 9 °F    
Average Humidity 79    
Maximum Humidity 92    
Minimum Humidity 68    
Precipitation  
Precipitation 0.00 in - - ()
Sea Level Pressure  
Sea Level Pressure 29.79 in    
Wind  
Wind Speed 13 mph (WSW)    
Max Wind Speed 18 mph    
Max Gust Speed 24 mph    
Visibility 10 miles    
Events      
Averages and records for this station are not official NWS values.
T = Trace of Precipitation, MM = Missing Value Source: NWS Daily Summary

Daily Weather History Graph

Daily Weather History Graph

Search for Another Location

Airport or City:

Trip Planner

Search our weather history database for the weather conditions in past years. The results will help you decide how hot, cold, wet, or windy it might be!

Date:

Astronomy

May. 14, 2013 Rise Set
Actual Time 4:54 AM AKDT 12:21 AM AKDT
Civil Twilight 3:08 AM AKDT 2:03 AM AKDT
Nautical Twilight Sun does not set Sun does not set
Astronomical Twilight Sun does not set Sun does not set
Moon 8:59 AM AKDT (5/14) 3:23 AM AKDT (5/14)
Length of Visible Light 22h 55m
Length of Day
19h 26m
Waxing Crescent, 20% of the Moon is Illuminated
May 14
Waxing Crescent
May 17
First Quarter
May 24
Full
May 31
Last Quarter
Jun 8
New

Hourly Weather History & Observations

Time (AKDT) Temp. Windchill Dew Point Humidity Pressure Visibility Wind Dir Wind Speed Gust Speed Precip Events Conditions
12:16 AM 10.4 °F -5.4 °F 6.8 °F 85% 29.81 in 10.0 mi WSW 13.8 mph - N/A   Mostly Cloudy
12:36 AM 10.4 °F -6.0 °F 6.8 °F 85% 29.80 in 10.0 mi WSW 15.0 mph 19.6 mph N/A   Partly Cloudy
12:56 AM 8.6 °F -7.7 °F 6.8 °F 92% 29.81 in 10.0 mi WSW 13.8 mph - N/A   Clear
1:16 AM 8.6 °F -7.0 °F 6.8 °F 92% 29.81 in 10.0 mi WSW 12.7 mph - N/A   Clear
1:36 AM 8.6 °F -7.0 °F 5.0 °F 85% 29.81 in 10.0 mi WSW 12.7 mph - N/A   Clear
1:56 AM 8.6 °F -8.3 °F 3.2 °F 79% 29.80 in 10.0 mi WSW 15.0 mph 19.6 mph N/A   Clear
2:16 AM 8.6 °F -8.3 °F 3.2 °F 79% 29.80 in 10.0 mi WSW 15.0 mph 24.2 mph N/A   Clear
2:36 AM 8.6 °F -9.5 °F 3.2 °F 79% 29.80 in 10.0 mi West 17.3 mph - N/A   Clear
2:56 AM 8.6 °F -8.3 °F 5.0 °F 85% 29.81 in 10.0 mi WSW 15.0 mph - N/A   Clear
3:16 AM 8.6 °F -8.3 °F 5.0 °F 85% 29.81 in 10.0 mi WSW 15.0 mph - N/A   Clear
3:36 AM 8.6 °F -8.3 °F 5.0 °F 85% 29.81 in 10.0 mi WSW 15.0 mph - N/A   Partly Cloudy
3:56 AM 8.6 °F -8.9 °F 3.2 °F 79% 29.81 in 10.0 mi West 16.1 mph 19.6 mph N/A   Clear
4:16 AM 8.6 °F -9.5 °F 5.0 °F 85% 29.81 in 10.0 mi West 17.3 mph - N/A   Clear
4:36 AM 8.6 °F -9.5 °F 5.0 °F 85% 29.81 in 10.0 mi West 17.3 mph 21.9 mph N/A   Mostly Cloudy
4:56 AM 8.6 °F -7.7 °F 5.0 °F 85% 29.81 in 10.0 mi West 13.8 mph 23.0 mph N/A   Overcast
5:16 AM 8.6 °F -8.3 °F 5.0 °F 85% 29.81 in 10.0 mi WSW 15.0 mph - N/A   Scattered Clouds
5:36 AM 8.6 °F -7.7 °F 6.8 °F 92% 29.81 in 10.0 mi WSW 13.8 mph - N/A   Partly Cloudy
5:56 AM 10.4 °F -6.6 °F 6.8 °F 85% 29.81 in 10.0 mi West 16.1 mph 21.9 mph N/A   Scattered Clouds
6:16 AM 10.4 °F -7.2 °F 6.8 °F 85% 29.80 in 10.0 mi West 17.3 mph 23.0 mph N/A   Scattered Clouds
6:36 AM 10.4 °F -7.2 °F 6.8 °F 85% 29.80 in 10.0 mi West 17.3 mph - N/A   Overcast
6:56 AM 10.4 °F -5.4 °F 8.6 °F 92% 29.80 in 10.0 mi West 13.8 mph 19.6 mph N/A   Overcast
7:16 AM 12.2 °F -1.8 °F 6.8 °F 79% 29.81 in 10.0 mi WSW 11.5 mph - N/A   Overcast
7:36 AM 12.2 °F -4.3 °F 6.8 °F 79% 29.81 in 10.0 mi West 16.1 mph 20.7 mph N/A   Overcast
7:56 AM 12.2 °F -4.8 °F 8.6 °F 85% 29.80 in 10.0 mi WSW 17.3 mph - N/A   Overcast
8:16 AM 12.2 °F -4.3 °F 8.6 °F 85% 29.80 in 10.0 mi West 16.1 mph 19.6 mph N/A   Mostly Cloudy
8:36 AM 12.2 °F -3.1 °F 8.6 °F 85% 29.81 in 10.0 mi West 13.8 mph 18.4 mph N/A   Mostly Cloudy
8:56 AM 12.2 °F -3.7 °F 8.6 °F 85% 29.81 in 10.0 mi West 15.0 mph - N/A   Scattered Clouds
9:16 AM 12.2 °F -3.7 °F 8.6 °F 85% 29.81 in 10.0 mi West 15.0 mph 20.7 mph N/A   Mostly Cloudy
9:36 AM 12.2 °F -4.3 °F 8.6 °F 85% 29.81 in 10.0 mi West 16.1 mph 19.6 mph N/A   Scattered Clouds
9:56 AM 14.0 °F -3.0 °F 8.6 °F 79% 29.81 in 10.0 mi West 18.4 mph 23.0 mph N/A   Clear
10:16 AM 14.0 °F -2.0 °F 8.6 °F 79% 29.81 in 10.0 mi West 16.1 mph 21.9 mph N/A   Partly Cloudy
10:36 AM 14.0 °F -1.4 °F 8.6 °F 79% 29.81 in 10.0 mi West 15.0 mph 23.0 mph N/A   Mostly Cloudy
10:56 AM 14.0 °F -0.8 °F 8.6 °F 79% 29.82 in 10.0 mi West 13.8 mph 19.6 mph N/A   Overcast
11:16 AM 15.8 °F 0.9 °F 8.6 °F 73% 29.82 in 10.0 mi West 15.0 mph - N/A   Overcast
11:36 AM 15.8 °F 0.9 °F 8.6 °F 73% 29.81 in 10.0 mi West 15.0 mph - N/A   Overcast
11:56 AM 15.8 °F 1.4 °F 10.4 °F 79% 29.81 in 10.0 mi West 13.8 mph 19.6 mph N/A   Overcast
12:16 PM 15.8 °F 1.4 °F 8.6 °F 73% 29.81 in 9.0 mi West 13.8 mph - N/A   Overcast
12:36 PM 15.8 °F 2.1 °F 8.6 °F 73% 29.81 in 10.0 mi West 12.7 mph - N/A   Overcast
12:56 PM 15.8 °F 2.7 °F 10.4 °F 79% 29.81 in 10.0 mi WSW 11.5 mph 17.3 mph N/A   Overcast
1:16 PM 15.8 °F 2.1 °F 8.6 °F 73% 29.81 in 8.0 mi West 12.7 mph 17.3 mph N/A   Overcast
1:36 PM 15.8 °F 2.1 °F 8.6 °F 73% 29.81 in 10.0 mi West 12.7 mph - N/A   Overcast
1:56 PM 15.8 °F 2.7 °F 8.6 °F 73% 29.81 in 7.0 mi WSW 11.5 mph - N/A   Overcast
2:16 PM 15.8 °F 2.1 °F 10.4 °F 79% 29.81 in 8.0 mi WSW 12.7 mph - N/A   Overcast
2:36 PM 15.8 °F 2.7 °F 10.4 °F 79% 29.81 in 10.0 mi WSW 11.5 mph - N/A   Overcast
2:56 PM 15.8 °F 2.7 °F 10.4 °F 79% 29.80 in 9.0 mi WSW 11.5 mph 18.4 mph N/A   Overcast
3:16 PM 17.6 °F 3.7 °F 10.4 °F 73% 29.79 in 10.0 mi West 13.8 mph 18.4 mph N/A   Overcast
3:36 PM 17.6 °F 4.3 °F 10.4 °F 73% 29.79 in 10.0 mi West 12.7 mph 18.4 mph N/A   Overcast
3:56 PM 17.6 °F 4.3 °F 10.4 °F 73% 29.79 in 9.0 mi WSW 12.7 mph - N/A   Overcast
4:16 PM 17.6 °F 3.7 °F 10.4 °F 73% 29.79 in 10.0 mi WSW 13.8 mph - N/A   Overcast
4:36 PM 17.6 °F 5.0 °F 10.4 °F 73% 29.78 in 10.0 mi West 11.5 mph - N/A   Overcast
4:56 PM 17.6 °F 6.4 °F 10.4 °F 73% 29.78 in 9.0 mi WSW 9.2 mph - N/A   Overcast
5:16 PM 17.6 °F 6.4 °F 10.4 °F 73% 29.78 in 9.0 mi WSW 9.2 mph - N/A   Overcast
5:36 PM 17.6 °F 4.3 °F 10.4 °F 73% 29.78 in 10.0 mi West 12.7 mph - N/A   Overcast
5:56 PM 17.6 °F 6.4 °F 12.2 °F 79% 29.78 in 7.0 mi WSW 9.2 mph - N/A   Overcast
6:16 PM 19.4 °F 7.2 °F 10.4 °F 68% 29.77 in 10.0 mi SW 11.5 mph - N/A   Overcast
6:36 PM 17.6 °F 5.7 °F 12.2 °F 79% 29.77 in 10.0 mi WSW 10.4 mph - N/A   Overcast
6:56 PM 17.6 °F 7.3 °F 10.4 °F 73% 29.77 in 10.0 mi WSW 8.1 mph - N/A   Overcast
7:16 PM 17.6 °F 8.2 °F 10.4 °F 73% 29.77 in 10.0 mi SW 6.9 mph - N/A   Overcast
7:36 PM 19.4 °F 9.5 °F 10.4 °F 68% 29.76 in 10.0 mi SW 8.1 mph - N/A   Overcast
7:56 PM 19.4 °F 9.5 °F 10.4 °F 68% 29.76 in 10.0 mi SSW 8.1 mph - N/A   Overcast
8:16 PM 19.4 °F 9.5 °F 10.4 °F 68% 29.76 in 10.0 mi SSW 8.1 mph - N/A   Mostly Cloudy
8:36 PM 17.6 °F 8.2 °F 10.4 °F 73% 29.76 in 10.0 mi SW 6.9 mph - N/A   Scattered Clouds
8:56 PM 17.6 °F 8.2 °F 10.4 °F 73% 29.75 in 10.0 mi WSW 6.9 mph - N/A   Clear
9:16 PM 17.6 °F 9.3 °F 12.2 °F 79% 29.74 in 10.0 mi SW 5.8 mph - N/A   Clear
9:36 PM 17.6 °F 9.3 °F 10.4 °F 73% 29.74 in 10.0 mi WSW 5.8 mph - N/A   Clear
9:56 PM 17.6 °F 10.7 °F 10.4 °F 73% 29.74 in 10.0 mi WSW 4.6 mph - N/A   Clear
10:16 PM 17.6 °F 12.3 °F 10.4 °F 73% 29.74 in 10.0 mi SW 3.5 mph - N/A   Clear
10:36 PM 17.6 °F 12.3 °F 12.2 °F 79% 29.74 in 10.0 mi SSW 3.5 mph - N/A   Clear
10:56 PM 15.8 °F 10.2 °F 10.4 °F 79% 29.74 in 10.0 mi SSW 3.5 mph - N/A   Clear
11:16 PM 15.8 °F - 10.4 °F 79% 29.74 in 10.0 mi Calm Calm - N/A   Clear
11:36 PM 15.8 °F - 10.4 °F 79% 29.73 in 10.0 mi Calm Calm - N/A   Clear
11:56 PM 14.0 °F - 8.6 °F 79% 29.73 in 10.0 mi Calm Calm - N/A   Clear